Starlink 6160

operational
NORAD ID: 56382 Int'l Des: 2023-061 Owner: SPXS Country: US Constellation: starlink
LEOCIRCULAR

Über Starlink 6160

Beschreibung wird geladen...

Live-Position

3D-Globus wird geladen...

Nächste Überflüge

Höhenverlauf

Altitude vs Time

uPlot chart will show altitude changes over time

Zweizeiliger Elementsatz

1 56382U 23061J 25351.50716482 -.00000343 00000-0 -10311-4 0 9997
2 56382 43.0032 283.9032 0001296 277.3240 82.7455 15.02534194144394
Epoch: 17. Dez. 2025 • Age: 10 hours

Aktueller Status

Höhe 559.4 km
Geschwindigkeit 7.58 km/s
Subsatellitenpunkt -4.84°S, 135.91°W
Startdatum 4. Mai 2023
Alter 2.6 years
Typ internet

Technische Details

Klassifizierung Payload
Masse 305.00 kg
Trockenmasse 290.00 kg
Gesamtmasse 305.00 kg
Länge 0.20 m
Durchmesser 2.80 m
Spannweite 9.00 m
Form Box + pan
Hersteller SPXS
Bus-Typ Starlink
Phasenstatus In Orbit
Besitzer/Staat SPXS/US

Große Konstellationen

Loading constellations...